Theta_e
359 362 362 362 363 363 362 363 362 361 359 360 359 360 360 359 355 356 358 358 359 360 361 360 361 362 359 358 356 359 364 362 362 364 366 366 366 366 364 364 366 364 365 364 361 361 363 363 363 364 366 365 363 361 358 359 362 360 362 360 358 361 360 358 354 354 360 361 358 356 359 364 360 365 365 364 365 368 363 368 370 367 366 364 370
358 361 362 361 361 362 362 362 363 362 360 358 359 358 359 358 359 358 355 358 360 357 360 359 359 359 359 359 362 360 363 368 361 360 363 364 364 359 362 366 367 366 365 365 366 362 363 364 362 361 364 363 360 357 356 356 355 355 355 357 357 358 362 359 357 356 356 361 358 363 360 363 361 368 365 364 365 369 367 366 365 364 364 367 365
357 361 361 361 361 361 361 362 362 361 359 357 356 356 356 357 359 358 355 354 359 359 356 357 359 361 360 359 362 363 365 365 363 361 361 364 363 359 355 360 363 362 361 364 362 364 363 364 362 362 359 359 361 358 356 355 355 354 354 355 357 358 360 363 361 358 358 357 362 359 359 361 363 363 367 367 370 370 369 366 360 360 364 365 364
355 358 360 360 361 361 361 361 360 360 358 357 355 355 354 355 358 357 355 353 352 358 358 357 359 362 362 361 362 365 364 364 363 362 363 363 363 363 362 361 361 361 359 359 358 360 359 360 359 358 360 360 360 358 359 358 358 359 358 360 361 360 361 362 365 362 359 355 360 361 362 362 363 364 364 366 364 365 366 367 367 364 363 362 363
354 355 357 358 358 359 359 359 358 359 358 356 355 355 354 353 356 356 355 352 352 353 358 359 359 361 360 360 361 363 362 363 363 359 360 362 363 360 361 362 362 361 360 359 359 359 358 357 357 358 360 359 360 359 358 359 360 357 357 358 359 360 361 361 363 365 362 359 359 363 365 365 365 367 369 366 364 362 365 366 366 368 368 363 359
352 353 355 356 357 358 358 358 357 357 357 356 355 355 354 354 354 356 356 354 353 351 354 357 357 360 362 360 360 362 364 363 364 362 357 358 360 360 359 361 361 363 361 359 359 360 357 356 355 356 355 356 356 357 361 362 362 360 358 357 358 361 363 364 364 364 363 361 362 358 363 359 361 363 366 368 363 357 357 360 364 368 373 370 362
353 351 352 354 357 357 357 357 358 357 358 357 356 356 355 354 354 353 356 356 353 351 350 355 358 358 362 362 357 360 363 362 364 365 362 359 359 360 357 356 359 360 361 358 356 357 358 357 357 356 356 356 355 356 359 363 362 362 362 363 362 360 360 361 362 363 363 362 359 359 357 359 361 359 364 369 371 367 359 356 358 361 365 369 370
352 352 352 353 355 355 357 358 358 360 359 361 359 357 356 356 356 356 357 356 354 353 351 350 354 357 357 360 360 359 361 362 364 366 366 361 358 359 360 356 353 355 357 357 356 353 353 355 353 354 357 360 359 358 358 358 362 363 362 363 364 363 360 357 359 360 360 359 356 353 354 356 359 360 361 366 366 366 365 363 359 360 361 367 370
352 351 352 353 355 358 358 358 359 361 360 361 360 359 357 358 358 358 359 357 355 355 354 352 352 355 356 357 358 357 354 357 358 361 363 363 361 356 358 358 355 353 354 353 355 357 355 351 350 351 356 359 366 367 365 367 360 361 365 366 366 365 364 360 357 357 358 356 355 356 354 356 358 358 355 356 358 357 361 359 358 361 363 361 364
352 352 351 353 356 358 359 360 360 361 360 361 362 361 359 359 357 358 358 358 359 359 358 356 354 353 355 356 357 354 353 352 355 345 350 359 361 354 354 357 359 357 356 356 353 352 353 354 350 361 365 366 367 362 356 357 359 358 360 366 367 367 364 362 360 358 358 355 352 351 350 349 349 353 351 353 358 363 361 362 359 359 361 361 362
350 351 353 355 356 359 359 360 361 361 362 362 363 362 359 358 359 360 359 359 360 361 358 356 355 354 353 354 355 354 352 349 342 335 336 341 355 358 357 357 360 361 358 358 358 354 352 353 354 358 367 363 365 354 353 350 350 349 350 354 361 369 365 361 360 359 356 355 355 353 350 350 351 353 351 348 349 353 356 360 358 359 358 356 353
353 353 353 356 357 358 358 362 361 361 362 363 363 364 362 360 359 361 359 358 361 359 357 357 358 355 353 354 353 354 355 344 332 331 333 333 342 354 352 354 354 356 359 356 355 355 355 352 351 350 355 361 362 366 359 349 346 346 345 346 348 349 351 364 366 362 362 358 355 354 352 351 353 357 354 350 352 355 360 361 360 358 358 357 357
351 356 358 356 357 357 361 360 361 360 362 362 363 363 363 360 359 358 357 359 358 359 360 357 358 357 356 355 353 354 354 341 330 328 330 330 331 344 351 349 349 350 353 356 357 358 357 355 354 353 350 367 364 363 369 368 348 342 344 345 345 344 340 339 343 362 366 364 362 359 358 358 358 358 358 358 363 360 359 356 358 359 359 357 358
354 354 355 358 359 359 360 359 359 361 362 362 362 361 360 361 358 357 357 359 359 357 357 358 358 359 358 357 357 355 355 343 329 325 326 326 328 335 353 350 349 349 351 353 354 356 359 359 357 356 357 358 362 363 364 365 370 367 361 361 362 359 345 338 337 339 349 360 362 360 363 366 362 364 366 366 363 360 358 355 358 357 358 359 365
352 352 353 356 359 358 359 359 359 360 362 362 362 361 360 361 359 357 356 356 357 358 357 358 358 358 357 357 356 355 354 337 327 322 322 322 325 331 352 350 350 351 351 353 355 355 358 360 361 360 361 361 361 363 365 365 365 365 370 369 367 365 367 364 361 359 359 358 360 362 364 367 368 368 370 370 367 367 365 365 365 365 365 366 365
342 343 348 351 355 356 357 358 360 360 361 361 362 361 361 361 360 359 358 356 356 356 358 359 358 357 357 357 355 355 356 333 326 322 319 320 323 342 350 352 351 351 352 353 354 357 359 359 361 361 363 363 361 349 358 366 366 365 365 366 368 367 366 364 351 354 364 363 363 362 360 362 353 376 381 370 367 368 369 365 366 365 362 358 356
340 340 340 341 344 349 350 352 357 359 362 362 362 360 360 360 361 362 359 357 354 353 356 357 360 359 358 358 357 357 357 341 324 319 318 318 325 348 351 351 352 352 352 354 355 356 358 362 362 360 360 364 354 336 339 353 362 362 363 364 365 363 361 364 348 339 340 338 338 339 338 335 333 329 328 329 356 362 365 361 358 358 354 352 354
338 339 338 340 340 340 342 347 353 356 358 358 358 358 358 358 358 360 358 357 355 353 355 356 358 360 359 359 358 357 358 348 323 318 316 316 331 350 353 352 353 354 354 356 356 357 359 359 365 363 363 363 344 331 333 351 361 361 360 360 361 361 362 362 364 365 335 334 335 335 335 335 335 333 333 332 331 343 361 356 357 354 353 354 350
336 337 338 340 338 340 342 343 346 353 356 356 357 357 357 358 358 358 357 358 357 358 357 356 356 359 359 359 355 356 359 351 324 318 316 314 330 353 353 354 354 354 354 355 358 358 359 359 358 356 359 357 336 328 329 347 362 362 361 359 357 358 359 365 364 364 368 365 364 361 357 347 355 360 360 339 337 344 357 360 360 354 351 350 350
336 338 339 340 340 340 341 342 343 345 351 357 359 358 358 357 357 356 357 357 357 357 357 357 356 358 361 358 358 358 358 360 359 316 315 313 318 351 355 354 354 355 357 356 358 360 360 361 356 335 332 332 331 323 324 328 359 362 362 358 358 357 360 363 366 367 367 363 366 367 367 367 366 366 365 364 358 355 357 360 361 358 355 353 353
334 336 337 337 339 341 342 343 343 345 347 350 355 359 358 358 358 358 357 358 359 358 359 360 359 358 358 359 359 359 360 361 361 318 314 312 314 326 354 355 356 357 358 359 358 358 360 361 363 342 326 325 325 321 319 319 333 361 362 361 361 363 361 363 365 369 366 367 366 365 364 367 367 367 365 367 365 363 358 359 361 359 357 356 354
333 334 334 336 338 340 341 342 344 344 347 349 350 354 360 360 360 360 359 359 361 361 364 363 359 356 357 357 361 362 360 352 364 327 315 312 312 313 346 355 356 359 359 360 360 361 362 362 364 349 324 322 321 320 317 318 320 354 361 336 335 335 367 366 367 366 364 363 360 360 361 361 360 360 357 356 357 358 363 363 361 361 362 363 361
332 333 334 334 337 339 341 341 342 343 345 348 349 348 352 358 362 362 360 360 360 359 359 359 356 353 353 356 361 363 364 363 339 357 317 312 311 311 320 340 335 361 358 359 361 362 364 365 364 351 321 317 316 317 317 318 322 341 329 327 327 329 344 362 362 362 362 362 362 360 360 360 360 358 358 357 357 361 358 359 361 365 367 367 367
332 331 332 332 333 336 339 340 340 342 344 346 349 348 348 351 355 360 360 358 357 356 356 355 353 352 351 354 356 358 363 364 349 336 340 312 312 310 312 317 328 352 358 358 361 362 363 365 360 337 316 311 311 315 317 319 336 324 320 323 325 332 354 358 358 361 359 358 359 360 360 360 361 362 360 363 361 367 364 365 368 369 369 367 369
331 330 330 331 332 333 335 339 340 339 341 343 345 347 349 350 350 355 357 356 356 355 354 353 352 351 351 353 356 359 361 363 365 351 329 320 313 312 311 313 316 321 351 358 361 361 345 336 333 328 316 311 311 314 317 317 316 320 320 321 330 348 353 354 356 359 358 359 358 360 361 362 363 365 368 370 371 370 371 370 371 372 373 373 372
331 330 330 330 330 331 332 334 339 341 341 342 345 347 347 347 349 353 354 354 355 354 353 353 351 351 352 354 355 358 362 365 365 368 346 331 322 315 314 313 317 317 328 349 339 334 329 326 324 324 322 322 337 345 350 350 324 318 320 326 344 348 351 354 357 356 358 358 359 359 360 362 364 368 372 373 370 367 368 368 368 368 370 367 364
329 330 329 328 330 331 332 332 334 337 339 341 342 345 348 349 349 350 353 353 354 353 352 351 351 352 352 354 356 359 363 364 364 364 365 362 352 342 328 328 317 317 327 340 337 347 349 346 349 340 339 334 336 339 342 344 347 340 338 341 346 350 352 354 355 358 357 359 358 360 362 364 366 367 368 369 369 370 371 368 367 365 366 364 363
326 327 328 328 328 329 330 331 332 335 337 340 339 340 344 347 348 349 351 353 353 353 352 352 352 353 354 356 358 359 359 358 363 363 364 364 365 362 353 347 345 340 341 346 350 352 354 342 342 353 358 357 355 354 355 357 355 353 355 352 350 350 351 351 352 359 362 363 362 362 361 364 363 363 363 364 365 366 370 367 365 364 363 365 362
325 325 326 327 326 329 328 329 330 331 334 337 339 340 341 342 343 347 352 354 356 356 353 354 356 358 359 358 357 358 359 359 364 344 368 342 358 363 365 356 354 352 341 332 353 355 356 354 355 355 355 352 353 355 356 355 355 356 357 358 357 355 354 353 353 354 357 359 360 362 362 364 364 363 362 363 364 366 368 368 368 364 365 363 358
326 324 325 326 326 326 327 327 327 329 330 332 334 337 336 322 330 340 340 335 327 320 318 337 345 347 346 350 356 358 359 366 340 329 326 326 322 322 327 333 331 346 337 323 342 353 354 354 354 354 354 355 355 354 355 356 356 356 357 346 355 356 355 355 356 356 359 359 361 361 362 361 361 362 361 360 364 366 365 354 364 364 361 358 356
323 323 325 326 327 328 327 326 328 330 331 331 333 334 336 340 314 311 320 326 323 316 312 310 311 314 332 342 344 331 327 322 316 318 317 315 315 314 317 319 317 320 318 339 347 349 352 352 353 354 354 355 356 356 356 355 355 355 355 356 358 355 353 355 357 356 356 357 359 360 360 361 361 362 360 360 362 363 363 361 360 362 359 356 355
322 322 324 325 326 328 329 329 330 329 329 331 332 332 333 334 338 323 309 309 311 307 306 306 306 308 309 315 329 346 334 320 315 314 313 311 310 310 309 310 310 309 309 322 353 351 351 352 353 354 355 355 356 356 356 356 356 356 355 355 356 358 358 357 358 361 360 359 360 358 360 360 361 361 360 361 358 360 361 358 356 354 353 353 354
322 323 324 324 324 326 327 329 329 329 329 329 330 331 331 331 331 333 335 315 308 308 308 306 306 306 307 307 305 309 315 319 318 315 311 306 305 305 306 305 307 302 307 338 352 353 355 354 353 356 356 356 357 358 358 357 357 355 356 356 356 358 361 365 366 361 360 360 360 360 361 360 359 361 357 358 361 358 357 357 358 354 351 350 349
323 322 322 323 323 323 325 327 329 329 329 329 329 328 329 330 330 332 332 335 338 326 310 306 305 306 305 304 306 305 304 304 304 306 307 309 304 303 306 324 302 300 320 350 352 353 355 355 355 355 357 358 358 357 358 358 358 357 357 357 359 360 363 368 365 361 360 361 360 359 359 361 360 361 361 359 357 355 356 353 355 354 353 351 350
321 322 323 323 323 323 324 324 326 328 329 328 328 328 329 330 331 330 330 330 331 333 338 345 323 306 325 321 309 301 301 301 302 303 304 305 306 304 308 340 340 333 332 344 352 354 355 355 356 357 357 357 358 358 359 360 359 359 358 360 360 360 362 361 362 365 364 363 362 363 360 360 362 358 359 356 354 355 353 353 352 352 351 351 350
320 320 321 321 322 322 322 323 324 325 326 326 328 327 327 328 328 329 329 331 331 333 336 341 346 331 314 308 310 307 304 302 302 301 302 302 303 305 340 347 350 352 347 346 349 352 354 356 356 358 359 360 361 361 361 360 361 360 362 361 359 360 361 360 359 363 365 364 361 361 355 360 358 357 358 356 356 355 355 354 352 351 351 352 353
319 320 320 321 322 323 323 324 324 324 322 323 324 325 326 328 329 330 331 331 332 335 336 341 345 347 340 349 331 311 304 302 302 302 300 301 299 321 344 350 352 354 354 354 352 352 354 356 357 359 360 360 361 361 361 361 363 364 353 363 363 362 361 360 360 360 363 363 362 362 360 358 357 357 355 354 353 354 354 354 354 349 349 347 343
319 319 320 322 323 323 323 323 322 321 322 323 326 327 327 328 329 330 330 332 334 334 336 340 337 343 344 349 351 348 326 302 301 302 300 300 311 331 342 348 352 354 354 356 357 356 355 357 359 360 361 361 361 362 362 362 362 362 361 364 364 365 350 358 357 364 365 363 361 360 357 357 356 356 353 353 353 354 352 352 353 352 351 347 347
319 318 317 317 318 320 320 320 321 321 323 324 325 326 326 327 328 329 330 331 332 334 337 340 343 343 346 349 354 344 334 338 339 344 339 334 333 338 344 349 353 355 357 358 358 358 358 357 358 360 360 361 360 362 361 361 361 362 362 361 360 361 361 361 361 362 362 362 361 360 358 356 356 356 356 355 353 353 354 353 352 353 352 349 348
318 319 318 317 319 319 320 321 321 322 323 323 323 325 326 326 326 326 328 328 329 331 333 336 340 344 342 338 334 337 345 347 349 352 354 350 343 344 347 350 353 355 357 359 360 361 360 359 360 359 360 362 361 362 363 363 362 361 361 362 360 360 361 362 362 361 361 361 360 359 357 358 358 357 357 356 355 355 354 353 352 353 353 349 348
318 318 320 318 318 319 320 320 321 321 323 323 323 324 324 325 325 325 326 326 327 328 330 332 336 335 314 307 301 302 326 341 347 351 352 350 349 351 350 351 351 354 355 356 358 359 361 362 362 361 361 361 362 363 364 364 363 362 361 360 362 360 357 359 350 348 351 353 355 356 355 358 357 356 354 355 346 350 353 354 354 351 350 349 347
317 317 318 319 319 319 318 319 320 321 323 324 323 322 323 322 322 322 322 323 324 324 325 328 332 326 312 301 301 297 320 336 339 340 340 333 331 330 328 328 328 329 330 329 329 330 335 341 349 357 360 360 360 362 362 364 363 362 361 362 352 350 349 349 345 343 345 348 351 350 350 352 352 354 354 340 356 354 354 353 351 350 349 347 345
318 318 319 320 319 318 318 319 320 321 321 321 320 320 320 320 320 320 319 320 320 320 320 320 320 320 317 306 306 305 320 320 320 321 321 319 318 316 314 313 314 316 318 317 317 318 320 324 328 332 332 332 334 338 345 354 360 362 364 362 357 352 352 352 352 350 350 348 348 347 350 349 348 351 353 350 352 352 352 350 347 347 345 345 344
317 317 318 318 318 318 319 319 319 319 319 319 319 319 318 317 316 315 315 315 315 315 315 314 314 313 313 311 310 311 313 312 312 312 312 312 310 309 309 310 310 310 311 310 310 311 313 314 315 317 319 320 321 323 328 332 336 342 353 356 355 353 355 354 353 354 354 353 352 348 348 346 345 348 345 344 348 346 346 345 344 343 343 343 343
316 316 316 316 316 316 316 318 318 318 318 317 316 316 316 314 312 311 311 310 311 311 311 310 309 308 308 308 309 308 307 306 307 307 306 306 305 305 306 307 307 307 307 306 306 307 307 307 308 309 310 310 312 314 316 318 320 325 328 331 340 349 352 353 354 355 355 355 354 350 348 345 344 344 342 342 343 343 342 342 341 336 339 340 339
314 314 314 314 315 316 316 316 317 316 316 315 314 314 314 312 311 310 309 308 308 307 306 306 305 305 305 305 305 305 304 303 302 302 302 303 303 303 303 304 304 304 304 304 305 305 305 305 305 305 305 306 306 307 308 309 311 313 315 320 324 331 342 351 356 355 353 352 350 348 346 345 344 344 340 342 343 343 341 340 340 339 341 341 340
313 313 313 313 313 314 315 316 315 314 314 313 312 311 310 309 308 308 307 306 305 305 304 303 303 302 301 301 301 301 301 300 300 299 300 300 301 301 301 302 302 303 303 304 304 304 303 303 303 304 303 304 304 304 305 306 307 308 310 311 311 314 321 331 342 350 351 348 347 346 346 344 343 339 335 332 330 330 330 331 333 334 334 331 329
312 311 311 312 312 312 312 312 312 311 310 310 309 309 309 308 307 306 305 304 303 303 302 301 301 300 300 300 300 300 300 299 299 299 299 298 298 299 299 300 300 300 301 301 301 301 302 302 302 302 302 303 303 303 303 304 305 306 306 306 306 305 306 309 327 332 338 341 342 341 340 337 332 328 327 328 328 328 326 325 326 328 328 326 326
309 309 309 310 310 309 309 309 310 309 308 308 307 306 306 305 305 304 303 302 301 301 300 299 299 299 299 299 299 299 299 298 297 297 297 298 298 298 299 300 300 300 300 300 301 301 301 302 303 303 302 302 302 303 302 303 303 303 303 303 301 296 296 302 313 320 315 324 325 327 329 329 327 326 327 328 327 328 327 328 326 325 326 327 326
308 308 308 308 308 308 308 307 307 307 307 307 306 305 304 304 303 302 302 301 300 299 298 298 297 297 298 298 298 298 298 298 298 298 298 298 299 300 300 300 301 302 302 302 303 303 303 303 303 303 303 303 303 302 302 301 301 301 302 300 295 294 295 298 300 305 318 322 323 324 323 322 322 322 324 326 326 324 323 321 322 322 323 324 325
307 307 308 307 307 306 306 305 304 305 305 304 304 303 302 301 301 301 300 300 299 299 299 298 297 297 297 297 298 297 298 298 298 298 298 298 298 299 299 299 300 300 300 300 300 300 301 302 303 304 304 304 303 303 304 303 302 300 297 295 294 294 294 297 304 298 303 309 319 318 317 317 317 318 319 319 318 318 317 317 318 318 318 318 318
Wind_Speed
15 13 13 13 14 14 14 14 15 13 14 13 13 12 11 11 11 10 9 10 9 9 10 10 9 9 9 8 9 8 7 7 7 6 7 7 7 7 6 6 7 6 6 6 6 5 6 6 6 6 5 6 5 5 4 4 5 5 5 5 5 4 4 5 6 7 6 5 6 6 5 5 5 4 6 6 6 5 7 5 6 6 6 5 1
14 13 13 12 14 14 14 14 14 13 14 13 13 12 12 11 11 10 11 10 10 10 10 10 10 10 10 9 9 8 8 8 8 7 7 7 8 7 7 8 8 7 6 6 6 6 6 7 7 7 7 7 7 7 6 5 5 6 5 5 5 5 4 5 6 6 7 5 6 5 6 4 6 4 5 7 7 6 7 6 5 5 4 4 6
14 12 13 13 15 14 14 13 13 15 15 14 15 14 13 12 11 11 11 11 10 10 11 11 10 10 10 9 9 9 9 9 8 8 8 8 8 8 7 8 8 8 8 8 7 7 7 7 7 7 6 7 7 7 7 6 6 6 6 4 5 5 5 5 6 7 8 7 6 7 5 4 6 6 6 6 6 6 6 6 6 5 4 5 5
13 14 13 14 15 14 14 14 15 15 15 14 15 15 13 12 12 12 12 11 11 10 11 11 10 10 10 10 10 9 9 9 9 9 9 9 9 9 8 8 7 8 8 7 7 7 7 7 7 7 7 7 7 6 6 6 6 6 6 6 6 6 5 6 6 6 7 8 6 6 5 6 6 6 6 6 6 5 5 6 6 6 5 6 5
14 15 15 16 15 15 15 15 15 15 15 14 16 15 14 13 12 13 12 12 12 11 10 11 11 11 11 11 11 11 10 10 10 10 9 9 10 9 9 9 9 9 8 8 8 7 7 8 7 7 7 7 7 8 7 7 7 7 7 6 6 6 5 6 6 6 7 8 7 6 6 7 6 7 6 6 6 6 5 6 6 6 5 5 6
12 13 14 15 14 16 16 15 16 16 16 15 15 15 14 14 13 12 13 13 13 12 11 10 11 12 12 11 11 11 10 10 11 11 11 11 10 10 9 9 9 9 9 9 9 9 9 9 8 8 8 8 8 7 7 7 7 8 8 7 6 6 6 7 7 7 7 8 8 8 6 7 6 6 6 6 6 6 6 6 6 5 4 5 6
14 13 12 12 12 14 15 15 14 15 14 14 13 13 14 14 14 14 12 13 13 13 13 12 11 12 12 12 12 11 11 11 10 11 11 10 10 10 10 10 10 9 10 10 10 10 10 9 9 9 9 9 9 9 8 8 8 8 8 7 7 7 7 7 7 8 8 8 8 8 7 7 6 7 5 5 6 6 7 6 6 4 4 5 5
12 12 13 12 12 13 13 13 13 13 12 12 13 13 13 13 13 13 12 13 13 14 14 14 12 12 12 12 12 11 11 11 11 11 11 11 11 11 11 11 11 11 11 10 11 11 10 10 10 10 10 9 9 9 8 8 7 8 7 7 7 8 8 7 7 8 8 8 8 7 7 6 6 7 7 6 7 6 6 5 6 5 6 5 5
11 12 12 12 12 11 11 11 11 11 11 11 12 12 12 12 12 12 12 12 11 13 13 14 13 13 12 12 12 12 12 12 11 11 11 12 12 12 12 11 12 11 11 11 11 11 11 11 11 11 10 10 10 8 8 5 7 8 7 7 7 8 8 8 7 8 8 8 8 7 8 7 7 7 7 6 7 6 4 5 6 6 6 6 5
9 11 11 12 12 11 10 10 10 11 11 12 12 12 12 12 12 12 12 12 11 10 11 12 13 13 12 12 12 12 12 11 11 14 13 11 11 11 11 11 11 11 11 11 11 12 12 11 11 12 9 9 10 11 12 11 9 10 7 7 8 8 8 8 8 7 8 8 8 8 9 9 8 7 7 7 6 6 7 6 6 6 6 7 6
11 10 11 11 10 10 10 10 10 11 11 11 11 11 12 11 10 11 11 11 11 10 10 12 13 13 13 13 13 12 12 12 14 15 16 15 12 11 10 10 11 11 12 11 11 12 12 12 12 11 10 11 12 14 14 14 14 14 14 13 10 8 8 9 9 8 8 8 8 8 9 9 9 9 8 8 7 6 6 5 6 6 6 7 7
8 9 11 11 11 11 11 10 11 11 10 10 10 9 8 9 10 10 10 11 11 11 12 12 12 13 12 13 14 13 13 13 14 16 17 17 15 13 12 11 11 11 12 12 12 12 12 12 12 11 10 12 12 12 14 15 15 15 15 14 15 16 14 10 8 8 8 8 8 9 9 9 8 8 8 7 6 5 5 6 6 7 8 7 7
7 6 7 9 11 11 10 11 11 12 11 11 10 9 10 11 12 12 13 12 11 11 12 12 12 13 13 13 14 14 13 14 14 16 16 17 17 15 13 13 13 13 12 12 12 11 11 10 11 10 10 12 12 11 10 12 15 17 16 16 15 15 15 16 15 12 9 9 9 10 9 8 9 9 8 7 5 7 6 7 7 7 7 8 8
6 7 8 8 8 9 10 11 11 11 11 11 11 11 12 12 13 13 12 12 12 12 13 14 13 12 13 13 13 13 14 13 15 16 17 17 17 14 14 15 14 14 13 13 12 12 12 11 10 10 11 10 10 11 11 11 9 10 11 11 12 14 16 18 17 17 15 12 11 11 10 9 9 9 8 7 7 7 7 8 7 8 8 8 8
8 7 7 8 9 10 9 9 11 12 11 11 11 12 13 13 13 12 12 12 12 12 13 13 13 13 14 14 13 14 13 15 14 16 17 18 17 14 13 13 13 14 14 14 13 13 12 11 12 12 11 11 10 11 11 11 10 10 10 11 12 12 12 13 14 13 13 14 15 15 13 12 11 11 9 8 9 8 8 8 8 7 8 9 10
11 12 12 10 8 6 8 9 10 11 12 11 12 12 12 12 12 11 11 11 11 11 11 11 13 13 14 14 14 14 14 15 15 15 16 17 16 10 12 12 13 13 13 14 13 12 13 13 12 13 12 12 11 12 11 10 10 11 11 11 11 11 11 12 12 13 13 13 14 14 14 13 9 8 6 6 6 6 6 8 8 8 8 8 9
9 9 10 11 11 8 7 10 10 9 10 10 12 12 12 12 11 10 11 11 12 12 12 11 11 12 14 13 14 14 14 14 15 17 17 17 13 10 11 12 12 14 14 14 13 13 13 13 14 13 13 13 12 13 14 12 11 11 11 11 11 11 11 10 14 17 16 16 15 15 14 13 11 10 9 6 5 5 6 7 9 8 8 9 9
8 8 9 9 10 10 9 9 9 9 9 11 12 12 12 12 12 11 12 12 12 12 11 11 12 12 13 14 14 14 15 14 16 17 18 18 16 12 11 12 12 12 13 14 13 13 14 16 15 14 13 13 12 14 15 14 13 12 12 12 13 13 12 10 8 11 19 18 19 18 17 15 13 13 12 11 10 5 8 10 9 8 9 9 9
10 10 10 9 8 8 8 8 8 9 11 12 12 11 11 11 11 11 12 12 12 11 11 11 12 12 13 14 13 15 15 14 15 17 18 18 16 12 12 11 12 13 13 13 13 13 14 13 17 17 15 14 12 14 16 14 13 12 13 12 13 14 12 9 11 10 9 11 11 12 12 14 13 11 12 16 15 12 11 12 10 10 10 10 10
11 11 11 10 8 8 7 8 7 8 9 10 12 13 12 12 13 13 13 12 13 12 13 12 13 11 8 9 12 15 16 15 11 18 18 19 20 13 12 11 13 14 13 12 11 13 13 13 14 18 20 17 13 14 16 17 14 13 12 13 13 14 11 10 11 10 10 11 11 11 12 11 12 12 12 12 12 13 13 13 12 11 10 10 10
11 11 11 11 10 9 7 6 7 7 8 9 10 11 11 12 12 12 13 12 12 13 13 12 11 11 11 12 11 13 13 15 14 18 18 20 21 19 13 14 14 13 12 12 12 13 12 12 13 15 20 20 19 17 16 17 16 13 13 13 13 9 7 10 9 11 11 10 10 10 10 10 10 10 10 10 10 11 12 13 13 12 11 10 10
11 11 12 12 12 10 9 9 8 7 7 7 8 9 10 11 11 12 11 11 13 14 11 7 7 9 10 11 11 12 12 15 15 14 20 21 21 24 15 16 15 13 13 12 12 13 13 12 12 11 18 20 20 18 17 16 18 12 16 16 14 11 9 10 9 9 9 10 10 10 10 10 10 11 11 10 11 10 11 11 12 13 11 10 10
11 11 12 12 11 11 10 10 9 7 7 8 8 8 9 10 11 12 12 13 13 14 14 11 9 7 8 11 11 11 11 11 15 11 18 21 22 23 24 19 16 14 14 14 13 13 11 12 12 12 15 18 18 19 18 19 15 14 19 17 16 15 10 10 11 10 10 10 10 11 10 10 10 10 10 9 9 8 9 9 10 11 10 9 9
10 11 11 12 11 11 10 10 9 9 9 8 8 8 8 9 10 10 10 11 11 11 11 12 12 11 12 12 12 12 11 12 12 14 14 21 20 23 24 24 19 15 15 15 13 14 14 14 13 11 14 16 18 18 19 19 15 19 19 19 17 13 10 12 11 11 10 10 11 11 12 11 10 10 10 9 9 7 8 8 7 8 7 9 10
10 11 11 12 11 11 10 9 9 9 9 9 9 8 8 8 8 9 10 11 10 11 12 12 13 14 14 11 11 11 12 12 11 11 17 20 23 23 24 24 24 20 16 16 14 14 13 7 6 8 13 14 17 18 17 19 22 19 18 18 15 10 12 12 13 11 12 12 12 11 12 12 11 10 9 8 8 8 7 7 7 8 9 9 9
10 10 10 11 12 12 12 11 9 9 9 9 10 9 9 8 8 8 9 11 9 10 11 11 12 14 14 13 12 13 12 10 11 10 9 17 19 23 24 23 23 22 21 18 18 16 13 10 6 6 8 11 10 9 9 10 15 18 18 15 10 12 12 12 11 12 13 12 12 12 12 11 11 10 10 9 9 9 8 8 8 9 9 9 8
11 11 11 11 11 11 11 9 9 10 10 9 9 9 9 9 9 9 9 10 11 10 9 11 12 13 13 13 13 12 11 10 10 10 9 8 10 12 13 14 17 15 13 14 15 12 11 9 10 10 10 13 15 12 12 11 11 11 9 10 11 12 12 12 12 12 12 12 12 11 11 11 10 9 9 9 9 8 8 8 8 9 8 9 9
11 12 13 12 11 10 10 11 11 9 8 9 9 9 10 9 9 9 9 8 10 9 9 11 11 11 12 13 12 10 9 12 11 11 11 9 8 9 11 11 11 11 12 12 12 14 14 13 12 11 11 10 10 10 12 12 13 12 11 10 11 12 14 14 13 13 12 12 11 11 11 10 10 11 10 10 10 9 9 8 8 8 8 8 8
11 13 12 12 11 10 9 9 9 9 9 9 9 9 9 10 10 10 11 9 7 7 7 9 10 11 12 10 10 10 10 12 11 8 9 4 4 10 10 11 11 11 14 14 10 11 11 12 12 13 13 13 13 13 13 12 13 13 14 12 11 11 12 12 14 14 13 12 12 11 11 10 11 11 11 11 10 9 10 9 8 9 9 9 10
11 11 10 10 11 10 9 9 10 9 9 9 10 10 11 12 11 12 13 13 15 16 9 9 10 9 11 11 10 11 10 10 5 4 7 10 12 16 12 4 12 11 12 17 13 10 10 11 12 13 13 15 15 14 13 13 13 12 12 13 13 12 12 12 13 13 12 13 12 12 11 11 12 11 11 12 10 10 10 10 9 9 10 10 8
10 10 10 9 9 9 10 10 9 8 9 9 10 11 12 11 14 19 19 18 16 18 19 19 17 13 10 10 12 16 18 19 18 9 4 9 13 13 10 6 8 12 11 11 9 12 10 12 13 13 14 15 16 17 15 15 14 12 12 12 13 14 13 13 13 12 12 12 12 12 12 12 12 11 12 11 11 10 9 8 8 8 10 9 9
10 10 10 9 9 10 9 9 9 9 9 9 9 10 11 13 12 9 14 15 17 18 18 18 17 17 17 16 13 12 14 15 17 17 13 10 10 11 11 10 7 10 16 17 10 10 11 12 12 12 14 15 15 15 16 17 16 15 14 14 13 13 13 14 12 12 12 12 12 12 12 12 12 11 11 11 11 10 8 8 9 9 10 11 10
12 12 10 11 11 11 10 9 8 8 9 10 10 9 10 11 13 14 10 12 17 18 17 17 17 19 20 21 20 16 15 14 17 17 12 9 10 11 12 11 8 10 11 9 12 11 12 12 12 13 14 15 16 16 16 16 17 17 15 14 14 13 13 13 11 13 13 12 12 12 12 12 11 11 10 10 9 9 9 9 10 10 10 10 11
13 12 12 11 11 11 10 9 9 9 8 9 10 10 10 10 11 13 14 14 11 11 14 16 17 17 18 19 19 17 17 16 17 19 20 17 11 8 4 2 7 13 13 12 12 13 12 13 13 13 12 13 15 16 16 16 16 15 16 16 15 14 13 12 13 14 13 13 13 13 12 11 11 11 10 10 9 10 10 10 10 11 12 12 12
13 14 19 16 12 12 12 10 10 9 9 9 10 10 10 10 11 12 12 13 13 13 12 9 10 16 15 14 15 16 15 15 15 16 17 17 14 8 7 4 4 5 7 11 13 13 15 15 15 15 15 14 13 13 15 16 15 16 15 13 14 14 14 13 13 13 13 13 12 12 11 11 11 10 10 10 11 11 11 11 12 12 13 12 11
14 13 13 14 13 12 12 11 11 10 10 9 10 10 10 10 11 12 13 13 13 13 13 11 9 8 16 16 16 13 13 13 13 12 13 13 11 13 9 12 13 13 11 11 13 14 13 14 14 13 13 13 12 13 14 14 15 15 14 13 13 13 14 15 14 14 14 14 14 12 11 10 10 11 11 12 14 13 13 13 12 13 13 13 12
14 13 12 11 11 11 11 11 11 12 12 11 11 11 10 10 11 12 12 13 12 11 12 13 11 9 8 8 12 12 5 3 4 4 7 10 13 12 12 13 13 12 14 14 13 13 14 14 14 13 13 13 13 13 13 14 13 13 12 13 13 14 16 15 15 14 14 13 14 12 11 11 11 13 14 14 13 13 13 14 13 13 13 13 8
15 14 13 12 11 11 11 11 11 12 12 11 10 11 11 11 11 10 11 12 12 12 13 13 12 12 11 8 3 3 3 6 10 7 6 5 7 9 11 12 13 14 13 14 14 14 13 14 14 14 14 13 14 14 14 15 15 15 15 13 12 13 13 13 13 13 13 13 14 12 10 10 12 13 13 14 14 14 13 14 13 13 10 8 9
14 15 15 12 10 12 12 12 12 11 11 11 11 11 11 11 10 10 10 10 10 11 11 12 12 11 10 9 6 4 5 2 3 4 6 7 8 9 10 12 12 13 14 15 14 15 15 13 12 12 13 13 13 14 15 15 15 15 14 13 14 14 14 15 15 13 12 12 12 10 9 11 12 12 12 13 14 14 13 13 13 12 11 10 10
12 12 12 15 12 13 12 12 12 11 11 11 11 11 11 11 11 10 10 10 11 10 10 11 11 10 6 6 6 6 5 6 7 8 8 7 8 9 10 11 11 12 13 13 13 14 14 14 13 13 13 14 15 15 15 14 14 14 13 14 15 15 14 13 7 7 8 9 10 9 9 9 9 10 11 13 14 13 12 12 10 9 9 11 11
10 11 12 10 10 11 11 12 12 12 11 11 11 11 11 11 11 10 10 10 10 10 10 10 11 4 5 8 8 6 4 7 8 9 7 4 3 5 8 8 9 9 9 10 10 10 11 13 13 10 10 11 12 14 14 14 13 13 13 12 8 5 6 5 4 8 10 10 9 6 6 8 8 8 12 11 8 9 9 9 6 7 8 10 10
10 11 11 10 10 11 11 11 11 12 12 11 10 11 11 10 10 9 10 9 9 9 9 9 8 6 8 13 13 11 5 6 6 6 3 3 4 3 4 5 6 6 6 7 7 7 8 9 8 7 7 8 11 13 13 12 12 13 13 5 3 5 7 8 8 10 10 10 10 11 13 12 11 11 10 9 8 8 10 10 11 10 10 10 10
12 11 11 10 10 10 11 10 10 10 9 9 11 10 9 9 9 9 9 9 8 8 7 7 6 7 7 8 9 9 2 2 2 4 4 4 5 6 6 6 6 6 6 6 7 7 8 8 8 7 7 7 8 8 8 8 8 10 7 6 8 9 10 8 6 7 8 9 9 9 9 8 10 11 11 9 8 10 12 9 9 9 9 9 8
10 10 10 11 10 10 10 10 10 9 9 10 10 9 9 8 7 7 7 7 7 7 7 6 5 5 6 7 6 4 3 3 4 4 5 5 5 5 6 6 6 6 6 6 7 7 7 7 7 8 8 8 9 9 8 8 8 8 10 11 10 10 10 9 9 8 8 8 9 10 8 8 10 10 10 10 10 10 10 10 10 9 8 8 8
11 10 10 10 10 10 10 9 9 9 10 9 8 8 6 5 5 5 5 5 5 6 5 5 5 5 5 6 5 5 4 4 5 5 5 5 5 5 5 5 6 6 6 6 7 7 6 6 6 7 7 8 8 8 8 8 8 8 8 10 11 11 14 15 16 14 10 9 9 9 8 9 8 9 10 11 12 11 11 11 9 9 9 9 10
10 9 10 10 11 10 9 9 9 8 8 8 8 7 6 5 4 4 3 4 4 4 3 3 3 3 4 5 5 5 4 4 5 5 5 5 5 5 5 5 4 5 5 5 5 6 6 6 6 6 6 7 7 7 7 7 7 7 9 9 9 11 12 12 12 13 12 11 11 9 10 11 9 9 9 11 12 12 10 10 10 10 11 12 10
10 10 10 10 11 10 9 8 8 7 7 7 7 6 5 4 3 3 3 2 2 2 2 1 2 2 3 3 4 4 4 5 5 6 6 6 5 5 5 4 4 4 4 5 4 5 6 6 7 7 7 7 7 7 7 6 6 7 7 7 8 10 10 10 9 8 5 6 8 10 10 10 9 6 6 4 6 7 8 6 5 5 5 5 7
8 8 9 9 9 9 8 8 7 7 7 6 5 5 4 3 3 2 2 1 0 1 1 1 2 2 2 3 3 4 4 4 5 5 5 5 5 5 4 4 4 3 4 4 5 5 6 6 7 7 7 8 8 8 9 9 8 8 7 6 7 9 7 5 4 5 3 3 8 10 9 7 6 7 8 9 9 9 10 9 7 6 6 5 6
8 8 8 8 8 8 7 7 7 6 6 5 5 4 3 3 2 2 1 1 1 1 2 2 3 3 3 4 4 4 5 5 5 5 5 5 4 3 2 3 4 4 4 4 4 5 6 6 7 7 7 7 8 9 9 10 10 10 10 8 11 19 15 8 4 5 8 7 6 5 4 5 7 6 5 8 9 10 10 9 9 8 7 7 6
7 7 7 7 7 6 6 5 5 5 4 4 4 3 3 3 2 2 2 2 2 2 3 3 4 4 4 5 6 6 6 6 6 6 6 5 4 4 5 7 7 7 8 8 8 8 8 9 9 8 6 5 6 6 7 9 9 7 7 10 18 21 21 18 14 10 10 8 9 8 8 8 7 7 7 7 9 10 11 10 10 9 9 9 8
6 6 6 5 5 5 4 4 5 4 4 3 3 3 3 3 3 3 2 2 2 3 3 4 5 5 6 6 6 7 7 7 6 6 6 6 6 6 6 6 7 7 8 8 8 8 9 9 9 9 9 9 9 9 7 5 4 11 14 19 20 20 21 20 14 15 13 12 13 12 11 10 9 8 7 7 10 11 11 11 11 11 10 9 9
Wind_Direction
194 196 197 200 198 197 197 199 202 205 208 208 213 215 215 218 219 220 211 215 215 211 212 217 221 219 223 222 223 218 214 218 216 218 220 224 227 235 245 230 227 233 234 245 250 241 240 244 245 240 243 251 251 252 251 238 238 248 246 246 250 247 246 260 273 283 287 300 300 295 316 315 305 315 297 298 308 327 318 301 310 306 313 313 6
200 195 198 198 201 200 202 198 200 202 206 207 211 213 216 215 217 215 217 213 214 218 215 216 214 218 221 220 221 221 211 212 219 218 221 224 228 226 224 229 232 237 244 240 234 244 238 238 243 242 232 240 251 252 247 248 241 240 230 236 255 252 236 260 268 279 287 289 289 303 300 293 289 297 310 309 313 314 308 312 296 305 309 316 313
200 196 198 198 200 201 201 200 199 202 204 207 212 214 213 215 212 214 217 216 210 219 218 220 218 215 221 222 216 218 214 214 219 224 223 224 229 238 233 225 228 234 231 231 237 236 238 239 241 241 240 233 234 246 252 252 257 263 266 260 253 253 244 240 260 269 281 288 293 286 285 302 298 304 299 296 302 295 297 298 307 308 310 305 302
198 195 199 203 202 200 200 203 202 203 206 208 212 215 216 212 209 214 216 220 215 211 220 222 217 215 218 218 216 217 213 216 219 219 220 223 228 230 237 237 233 232 236 239 233 231 238 239 244 248 250 246 243 253 254 249 245 242 245 240 245 253 257 246 240 259 272 280 281 283 293 296 292 290 290 286 286 297 292 298 289 283 302 302 292
202 197 200 204 203 203 203 203 205 206 210 212 213 214 216 216 209 213 215 218 220 214 210 216 218 214 217 217 216 215 216 216 219 224 222 222 224 229 231 230 231 234 237 238 242 243 242 244 246 244 242 247 243 241 243 235 238 243 238 238 241 242 241 241 242 243 255 265 274 272 279 276 278 281 279 286 289 284 284 281 284 289 285 294 297
218 214 206 207 206 204 203 204 207 208 211 214 215 215 216 217 215 209 213 215 215 218 212 210 212 213 217 220 219 218 217 217 217 221 225 224 222 226 226 228 230 232 234 234 235 236 239 239 240 242 246 247 251 250 249 247 240 239 244 245 239 236 238 237 238 242 249 258 266 275 266 269 275 275 277 271 276 291 293 286 275 270 267 283 310
208 218 220 218 213 212 207 206 206 209 209 213 215 216 217 217 218 216 210 214 213 214 213 212 212 215 215 218 221 219 219 219 218 218 224 227 228 226 230 227 229 232 234 237 238 235 236 238 237 236 239 242 246 246 240 238 242 245 240 240 239 238 236 237 234 237 243 251 257 262 270 266 261 269 263 253 259 269 279 287 285 288 283 286 284
213 213 213 218 221 218 218 212 212 209 210 209 216 218 218 218 218 218 214 213 216 216 218 213 211 215 217 218 219 219 217 218 216 219 221 223 223 225 226 232 233 233 237 238 240 242 240 240 242 236 232 232 237 241 243 243 242 244 239 235 237 237 241 244 238 239 242 248 256 265 270 279 274 270 270 253 255 254 248 265 284 295 297 287 279
216 217 219 222 219 217 218 219 215 212 211 211 213 217 219 217 216 217 215 218 218 221 221 222 217 216 218 218 219 219 220 220 219 216 217 218 224 227 226 229 232 237 239 241 238 239 244 247 246 244 236 228 227 238 255 274 250 243 241 240 239 237 242 246 244 244 245 251 259 260 260 260 265 270 268 263 261 271 284 287 283 282 282 290 289
229 229 222 220 223 219 214 215 211 209 207 209 210 212 217 218 217 216 218 219 222 223 225 224 227 222 219 219 219 220 222 225 216 211 214 220 219 228 229 231 235 238 238 239 243 241 241 246 251 246 235 221 206 209 221 235 248 259 260 243 235 239 241 243 244 242 244 250 252 255 258 258 259 258 269 271 273 264 263 264 278 292 295 288 285
237 235 237 229 223 221 214 211 210 209 207 208 209 209 214 219 220 220 220 221 223 221 223 225 226 228 224 223 222 223 226 226 210 196 204 214 225 227 230 233 231 234 236 237 242 246 246 245 248 234 212 210 212 209 214 218 223 231 246 258 272 269 248 242 242 243 247 247 248 252 257 263 263 271 274 277 274 278 287 285 283 287 289 295 291
285 252 236 240 240 229 226 210 205 208 207 209 209 210 212 219 227 227 226 225 222 225 225 226 228 230 230 229 229 229 231 226 204 195 200 205 212 227 234 235 236 235 236 239 239 241 244 245 243 243 230 223 227 213 213 218 221 226 231 236 240 248 256 265 265 252 245 250 252 255 263 261 265 260 263 272 282 278 277 283 278 280 281 279 284
273 297 301 259 233 232 227 219 212 208 206 207 206 203 203 210 217 223 227 228 230 227 230 230 228 229 234 234 235 235 237 222 203 198 200 203 207 217 236 241 242 242 240 239 240 240 242 242 246 246 245 202 211 226 222 212 215 222 225 229 236 237 240 244 249 257 271 265 258 257 252 261 262 259 260 269 279 273 277 269 268 271 274 277 280
330 305 277 270 262 240 230 233 232 221 209 207 205 206 210 211 218 225 228 226 225 228 230 231 231 230 231 232 236 241 240 232 202 199 200 202 203 204 231 237 242 245 246 245 242 239 235 238 237 236 239 233 223 222 224 228 216 207 216 224 230 228 226 231 235 239 242 252 258 256 252 249 254 259 261 260 256 260 266 273 278 276 276 280 293
351 336 316 290 262 247 241 240 238 233 222 210 208 209 212 218 221 223 226 225 226 227 232 234 232 231 231 230 233 236 237 232 209 200 201 201 200 198 225 234 240 242 243 242 244 245 242 235 235 237 237 233 229 220 223 222 225 226 221 221 223 229 225 221 220 223 224 231 238 246 251 252 254 256 258 254 254 254 261 273 282 285 285 286 276
360 354 347 346 2 346 289 248 237 233 227 216 210 212 216 217 219 222 231 236 234 232 229 235 240 237 233 234 236 237 241 223 209 201 200 202 191 199 218 228 236 242 242 241 241 239 238 238 236 236 236 237 225 208 215 227 227 228 231 233 234 232 232 225 213 213 219 221 226 235 241 243 245 259 283 292 271 264 265 260 254 256 262 266 272
2 355 349 346 347 338 322 324 314 269 236 226 228 229 227 224 224 223 226 231 238 238 239 237 236 241 243 239 237 241 243 226 204 202 198 194 180 208 216 225 231 235 240 240 239 239 237 234 233 236 235 233 224 194 201 210 233 236 236 237 239 240 239 230 198 206 213 226 234 238 250 262 271 270 271 274 272 289 285 276 261 261 265 265 269
356 351 344 343 334 334 333 322 293 283 261 247 244 246 245 243 241 237 238 235 231 237 241 243 245 243 242 244 242 240 242 232 202 202 200 186 189 205 214 221 230 231 235 234 236 239 237 232 233 234 235 235 213 186 194 198 226 234 238 239 240 240 239 241 232 202 208 214 222 233 241 248 254 260 260 257 243 219 236 241 249 253 251 255 261
348 341 334 333 327 322 320 314 317 295 267 256 254 250 247 247 248 245 241 242 243 236 232 238 242 243 242 245 237 239 248 244 203 202 199 188 193 212 217 224 229 232 233 233 231 235 237 230 223 227 233 234 213 188 191 194 222 230 234 238 241 242 240 233 233 233 207 212 228 233 242 244 246 244 240 232 232 217 228 239 250 248 251 256 263
341 334 329 321 320 316 307 308 303 308 307 285 262 252 248 246 243 241 242 241 240 237 232 231 233 237 243 252 257 251 244 247 213 196 195 191 194 207 218 223 231 231 232 234 234 232 233 237 223 212 221 224 218 196 194 197 216 229 234 238 240 241 240 236 234 238 241 237 236 224 224 230 231 227 228 225 218 212 219 225 232 239 247 252 252
337 334 328 322 320 314 309 308 302 299 293 299 301 281 256 247 245 243 240 236 238 237 235 229 230 236 233 232 229 239 253 253 232 186 195 190 196 202 217 224 228 232 234 232 233 236 234 231 240 206 205 213 215 206 198 202 212 228 235 240 240 251 272 249 234 220 238 246 250 252 248 242 238 238 228 220 217 202 205 217 225 231 237 244 250
333 333 327 324 322 318 318 316 309 302 298 298 299 299 284 258 248 246 245 243 238 237 235 223 231 242 247 246 239 231 232 245 255 187 193 192 195 200 214 225 225 230 234 237 236 238 235 236 236 211 195 205 210 209 207 204 212 221 234 239 251 262 264 253 261 256 247 243 245 243 241 239 238 236 237 233 228 223 207 206 215 230 229 236 244
329 326 326 324 322 318 314 312 310 305 300 296 294 294 298 285 258 244 240 239 240 241 240 243 240 240 247 248 247 246 236 232 233 215 189 194 196 201 212 222 219 223 236 238 238 240 237 239 239 216 186 197 201 207 210 214 213 224 230 234 237 245 252 250 253 254 250 248 247 247 246 244 242 238 235 236 237 234 238 236 227 217 224 238 240
321 322 322 322 322 319 314 312 309 305 299 293 288 283 283 286 285 266 244 235 239 239 240 242 245 244 239 238 241 244 242 243 222 211 188 192 198 203 210 219 222 224 230 242 242 244 247 246 246 213 184 188 196 201 209 212 219 223 225 231 235 239 244 247 245 243 244 245 242 241 242 238 238 238 237 236 241 236 240 244 250 255 241 234 232
317 319 319 318 317 317 317 310 305 301 301 294 286 278 268 263 261 266 255 239 233 235 236 237 240 244 245 242 242 243 243 239 241 211 198 191 198 203 210 214 221 222 230 238 244 250 257 264 249 201 184 186 194 202 211 216 220 225 223 224 226 234 234 237 239 237 238 235 233 234 235 233 233 236 240 242 238 238 236 237 240 238 238 238 241
313 312 310 312 313 315 314 311 303 297 296 291 283 273 266 260 259 252 250 248 242 239 241 239 240 242 244 244 244 245 240 242 241 235 198 199 201 205 208 211 216 218 225 237 239 245 259 281 279 242 194 192 199 210 220 216 218 225 228 222 222 228 231 232 232 234 237 237 236 234 234 234 231 230 229 229 232 231 228 227 226 229 227 231 238
304 304 307 308 309 308 308 310 317 309 299 292 285 279 264 254 251 251 248 251 249 244 238 241 243 242 242 245 244 245 245 246 243 240 237 208 205 207 210 218 218 222 227 239 247 254 251 249 246 238 240 215 212 220 222 222 213 215 220 219 224 229 228 228 231 231 232 237 240 239 239 241 242 237 228 217 219 222 218 214 222 235 236 240 241
297 302 304 305 302 304 306 307 302 296 300 300 298 299 295 284 266 255 253 250 250 246 241 243 242 243 248 247 247 241 241 242 237 232 230 232 235 218 201 202 203 201 216 223 223 231 236 234 232 241 238 239 229 231 235 234 235 231 226 215 216 221 227 232 234 237 237 236 240 243 245 240 238 235 233 232 234 230 221 214 219 230 235 239 234
281 286 294 296 296 299 299 302 304 309 308 301 290 283 281 282 286 287 277 272 276 280 287 275 264 261 256 254 254 250 242 240 231 221 229 229 224 261 214 206 204 205 217 218 217 225 227 232 237 235 236 236 239 239 235 232 230 230 229 227 220 216 217 219 224 228 229 231 235 237 238 235 236 234 238 239 232 227 225 217 217 234 234 228 232
280 278 281 288 291 295 300 305 309 306 302 301 302 295 286 278 270 275 280 286 297 295 275 265 272 295 299 291 288 276 257 261 353 1 218 215 209 232 260 221 194 211 198 189 209 223 219 226 226 231 234 240 241 237 234 233 232 228 226 221 226 227 221 219 223 226 222 224 229 231 233 234 236 234 235 235 233 227 216 203 216 223 228 228 226
273 278 274 271 286 300 298 296 299 299 298 298 298 298 298 282 246 237 243 255 259 262 271 274 273 260 252 279 281 278 286 293 297 298 284 205 209 222 224 224 197 203 160 162 203 220 229 237 235 231 232 237 240 242 241 239 236 233 230 225 221 225 227 229 225 222 222 222 223 229 232 229 232 231 235 233 237 237 234 218 221 221 223 229 233
263 267 273 276 283 285 286 289 291 291 291 291 291 296 297 297 294 256 237 243 252 257 259 262 267 270 258 242 250 279 270 268 271 271 255 238 225 217 222 223 203 160 174 176 198 215 223 229 233 234 236 237 236 240 242 242 240 239 239 237 232 227 223 226 223 222 221 223 223 224 225 228 230 232 231 233 233 236 226 219 204 214 220 228 233
259 264 267 273 274 279 281 282 282 283 288 289 289 289 291 295 294 299 288 246 243 248 250 248 250 256 258 261 253 244 254 268 277 274 259 238 240 238 225 224 190 180 161 187 225 231 233 232 236 237 238 241 241 240 240 241 243 243 238 238 238 235 230 226 214 223 225 224 226 228 225 226 227 227 226 224 222 228 232 227 217 211 213 221 227
252 257 263 267 272 275 278 281 280 277 277 281 285 286 284 286 289 293 296 303 286 256 244 249 253 256 260 255 252 250 249 251 251 254 259 254 236 235 236 197 143 181 190 213 218 232 235 240 240 238 237 240 242 240 239 239 241 240 241 240 239 239 237 231 222 223 224 225 229 231 229 227 226 227 223 226 227 231 228 226 225 223 226 229 230
252 257 259 263 264 266 270 272 275 277 277 278 278 279 280 283 287 287 288 288 291 291 297 282 244 230 241 249 233 232 236 240 239 242 247 249 240 197 150 165 176 197 227 235 233 236 243 243 246 244 244 240 237 238 241 241 240 239 237 233 235 235 233 231 228 222 226 230 226 225 222 222 224 225 224 226 231 224 224 224 224 225 228 226 221
251 253 257 256 256 259 261 264 268 273 276 276 278 281 282 282 279 280 282 279 279 285 289 284 287 263 236 242 255 250 235 228 233 234 238 234 214 160 202 225 235 235 218 208 220 229 233 239 243 241 239 238 237 237 238 240 239 239 234 231 233 233 233 231 224 224 227 234 236 224 218 219 223 231 230 230 230 229 227 224 226 227 225 225 211
248 249 250 249 253 259 264 266 267 270 275 279 280 275 272 271 274 278 279 281 279 281 280 288 289 277 256 237 224 242 260 315 284 248 223 214 186 187 227 229 234 231 236 235 227 224 227 230 233 238 239 239 239 238 237 238 236 233 234 237 243 244 245 245 239 227 226 228 234 224 215 224 228 233 235 232 229 231 232 233 229 227 226 225 195
251 250 248 251 255 260 263 265 267 271 271 269 265 268 272 274 275 274 276 277 284 287 287 285 280 285 290 294 173 151 93 74 83 86 98 117 161 211 225 236 234 234 232 235 236 234 229 231 231 233 237 240 244 244 244 244 242 244 243 240 239 245 246 244 231 228 226 225 232 229 218 222 231 232 228 233 235 234 233 235 233 226 210 201 196
247 246 249 260 270 264 269 270 268 266 267 268 272 275 275 277 278 279 279 282 283 282 286 284 282 285 290 293 291 102 112 172 190 227 196 194 200 212 225 229 231 231 235 236 237 239 239 234 236 238 240 240 241 244 246 248 247 246 248 249 247 245 242 245 244 239 233 233 235 231 226 233 231 232 234 233 235 238 236 233 229 223 211 196 200
245 250 235 213 234 246 251 257 261 262 262 266 270 274 277 279 280 282 285 285 284 286 289 292 295 292 327 4 2 349 303 276 264 260 254 211 198 211 223 231 234 237 239 241 242 244 243 243 242 244 244 244 246 246 244 244 246 247 248 252 255 254 251 249 272 304 297 270 250 239 233 231 231 237 240 239 239 235 231 227 217 215 203 195 194
247 247 253 242 242 253 255 255 259 260 265 264 266 268 274 278 280 283 284 282 284 286 285 289 288 343 32 359 3 1 299 273 263 265 275 299 292 251 239 242 250 255 257 259 262 262 259 249 238 235 244 246 247 249 249 246 247 249 250 249 251 254 263 259 140 217 224 228 231 223 224 225 228 236 242 239 237 237 231 231 209 191 198 197 190
247 251 251 248 238 244 250 254 255 255 255 263 266 268 271 274 279 283 284 284 285 288 293 296 309 348 12 11 352 339 298 275 292 269 299 340 340 357 6 12 15 8 0 1 357 347 343 341 328 300 280 270 259 252 248 245 248 252 253 224 175 242 234 221 206 217 232 240 226 207 205 199 197 208 227 243 224 219 229 221 213 200 201 196 192
244 249 252 252 252 249 250 251 253 257 260 259 260 261 265 272 277 281 284 287 293 300 303 308 322 334 336 0 340 322 330 353 359 359 7 2 359 2 9 12 6 5 5 2 358 353 343 336 331 336 352 356 357 349 334 308 292 269 246 213 214 217 231 231 221 218 220 230 240 242 228 204 199 198 192 197 210 213 220 207 199 198 196 193 194
246 248 249 253 255 254 252 252 254 256 257 258 264 266 268 272 277 281 287 293 299 304 300 306 321 332 323 328 327 333 357 25 35 29 21 19 14 11 5 4 5 10 13 15 10 3 359 346 343 345 349 352 355 349 335 331 334 319 288 266 248 241 240 231 220 216 205 206 210 216 213 207 209 207 186 173 183 193 196 195 193 193 192 196 188
246 248 253 254 252 250 249 246 250 251 254 259 256 256 257 262 268 279 289 295 299 300 303 318 334 337 336 331 336 351 8 22 36 40 36 26 19 13 7 6 11 13 16 17 16 14 15 11 3 360 359 356 353 349 343 341 336 319 315 316 304 272 251 249 249 240 218 208 207 213 214 207 206 202 199 184 177 181 188 188 180 179 181 181 177
253 253 253 256 258 253 247 245 243 245 247 250 253 256 254 254 260 274 287 290 290 297 305 322 337 350 352 350 351 1 15 25 37 43 41 31 26 19 14 10 15 21 25 22 20 22 24 26 26 23 16 8 0 359 355 352 340 335 330 322 310 301 298 286 267 246 230 211 208 205 208 207 209 211 209 194 188 181 175 171 171 179 180 183 176
254 252 256 257 258 254 250 244 245 244 245 246 249 250 247 248 252 255 256 289 301 305 309 331 4 29 32 22 11 13 18 31 41 45 44 36 30 25 21 20 20 28 28 33 29 32 34 36 35 32 29 24 20 17 15 4 1 356 349 337 329 325 315 323 310 280 230 198 206 219 209 205 210 205 192 113 85 104 111 115 116 119 116 109 119
257 258 257 256 253 254 252 247 244 244 244 244 244 243 243 241 237 239 252 258 329 350 350 27 45 52 53 45 38 27 30 35 44 48 47 43 34 29 27 29 37 43 48 45 45 45 48 46 43 40 38 33 33 28 24 23 20 15 6 351 344 328 323 338 337 336 324 219 215 212 204 183 156 148 151 150 138 126 115 111 114 103 100 102 102
259 257 255 253 251 250 252 250 243 240 238 232 227 230 228 223 215 206 194 165 152 71 51 51 53 54 54 53 48 45 42 46 49 51 52 51 51 49 66 80 86 86 86 80 75 74 74 71 70 67 65 62 56 54 46 40 35 29 23 15 3 360 350 27 42 55 66 63 45 47 72 99 109 109 113 120 110 96 91 97 96 98 98 96 100
258 258 256 259 253 251 251 256 256 245 234 227 224 203 192 189 185 177 170 153 123 94 85 76 69 62 63 62 61 62 62 64 69 77 82 84 74 57 56 62 63 62 63 61 59 55 60 65 67 67 62 58 70 80 79 66 54 43 41 28 22 29 16 7 22 54 85 80 73 64 55 61 69 80 71 70 82 90 90 94 100 105 106 107 102
279 269 256 250 250 246 244 239 239 233 223 211 197 184 178 169 165 157 154 145 128 113 106 94 86 84 81 80 78 76 73 69 66 68 60 53 43 40 38 37 45 52 53 47 40 34 32 31 32 30 30 27 28 23 17 18 85 103 71 48 44 32 33 30 18 14 47 78 82 76 63 52 46 44 61 72 76 79 81 85 88 88 87 84 82